SAS822 EHAM-ENGM

Flight info

Callsign SAS822
Flight time 1h 26m
Altitude 35000
Route ANDIK Z733 KONOM DCT AMADA DCT PIPEX M609 RIPAM
Aircraft A320/M-SDE3FGHIRWY/LB1

Departure

Time 2026-05-06 15:05
Airport Amsterdam Airport Schiphol (EHAM)

Arrival

Time 2026-05-06 16:32
Airport Oslo-Gardermoen International Airport (ENGM)
Time Latitude Longitude Altitude Speed Heading
2026-05-06 14:27 52.30625 4.76634 -1 ft 0 kts 236°
2026-05-06 14:53 52.30629 4.76644 -1 ft 2 kts 234°
2026-05-06 14:53 52.30638 4.76666 -1 ft 2 kts 238°
2026-05-06 14:53 52.30647 4.76689 -1 ft 2 kts 241°
2026-05-06 14:53 52.30654 4.76713 -1 ft 2 kts 250°
2026-05-06 14:54 52.30658 4.76739 -1 ft 2 kts 292°
2026-05-06 14:54 52.30651 4.76757 -1 ft 1 kts 328°
2026-05-06 14:54 52.30649 4.76758 -1 ft 0 kts 328°
2026-05-06 14:56 52.30658 4.76750 -1 ft 2 kts 328°
2026-05-06 14:57 52.30678 4.76730 -1 ft 4 kts 333°
2026-05-06 14:57 52.30710 4.76754 -1 ft 8 kts 54°
2026-05-06 14:57 52.30695 4.76834 -1 ft 9 kts 145°
2026-05-06 14:57 52.30656 4.76917 -1 ft 11 kts 92°
2026-05-06 14:58 52.30619 4.77017 -1 ft 12 kts 149°
2026-05-06 14:58 52.30538 4.77089 -1 ft 14 kts 166°
2026-05-06 14:58 52.30470 4.76980 -1 ft 15 kts 238°
2026-05-06 14:58 52.30412 4.76827 -1 ft 17 kts 238°
2026-05-06 14:59 52.30348 4.76661 -1 ft 18 kts 238°
2026-05-06 14:59 52.30278 4.76480 -1 ft 19 kts 237°
2026-05-06 14:59 52.30205 4.76286 -1 ft 21 kts 238°
2026-05-06 14:59 52.30126 4.76081 -1 ft 22 kts 238°
2026-05-06 15:00 52.30041 4.75863 -1 ft 23 kts 238°
2026-05-06 15:00 52.29952 4.75628 -1 ft 25 kts 238°
2026-05-06 15:00 52.29864 4.75395 -1 ft 19 kts 237°
2026-05-06 15:00 52.29836 4.75220 -1 ft 17 kts 286°
2026-05-06 15:01 52.29912 4.75065 -1 ft 19 kts 312°
2026-05-06 15:01 52.30003 4.74896 -1 ft 21 kts 311°
2026-05-06 15:01 52.30101 4.74716 4 ft 20 kts 311°
2026-05-06 15:01 52.30186 4.74557 10 ft 19 kts 311°
2026-05-06 15:02 52.30276 4.74390 10 ft 21 kts 310°
2026-05-06 15:02 52.30381 4.74190 -1 ft 17 kts 311°
2026-05-06 15:02 52.30423 4.74039 -1 ft 15 kts 251°
2026-05-06 15:02 52.30416 4.74017 -1 ft 0 kts 240°
2026-05-06 15:03 52.30410 4.74002 -1 ft 3 kts 240°
2026-05-06 15:03 52.30406 4.73960 -1 ft 5 kts 275°
2026-05-06 15:03 52.30409 4.73888 -2 ft 8 kts 274°
2026-05-06 15:03 52.30418 4.73783 -3 ft 11 kts 297°
2026-05-06 15:04 52.30470 4.73762 -3 ft 0 kts
2026-05-06 15:04 52.30471 4.73762 -3 ft 0 kts
2026-05-06 15:04 52.30526 4.73768 -3 ft 30 kts
2026-05-06 15:04 52.30968 4.73808 -1 ft 94 kts
2026-05-06 15:05 52.31797 4.73885 -1 ft 142 kts
2026-05-06 15:05 52.32899 4.73961 208 ft 163 kts
2026-05-06 15:05 52.34025 4.74122 830 ft 161 kts 18°
2026-05-06 15:05 52.35044 4.74747 1519 ft 159 kts 25°
2026-05-06 15:06 52.36064 4.75518 2037 ft 168 kts 26°
2026-05-06 15:06 52.37195 4.76371 2254 ft 191 kts 26°
2026-05-06 15:06 52.38496 4.77387 2421 ft 221 kts 33°
2026-05-06 15:06 52.39713 4.79089 2941 ft 237 kts 47°
2026-05-06 15:07 52.40826 4.81128 3783 ft 243 kts 50°
2026-05-06 15:07 52.41936 4.83249 4634 ft 248 kts 49°
2026-05-06 15:07 52.43147 4.85307 5450 ft 253 kts 36°
2026-05-06 15:07 52.44813 4.86283 6245 ft 262 kts
2026-05-06 15:08 52.46643 4.86109 7088 ft 264 kts 358°
2026-05-06 15:08 52.48492 4.85906 7839 ft 270 kts 358°
2026-05-06 15:08 52.50378 4.85730 8621 ft 274 kts 358°
2026-05-06 15:08 52.52293 4.85839 9363 ft 278 kts 11°
2026-05-06 15:09 52.54125 4.86916 10110 ft 283 kts 28°
2026-05-06 15:09 52.55741 4.88897 10463 ft 303 kts 45°
2026-05-06 15:09 52.57088 4.91725 10652 ft 325 kts 52°
2026-05-06 15:09 52.58492 4.94759 11012 ft 338 kts 51°
2026-05-06 15:10 52.59961 4.97843 11559 ft 345 kts 50°
2026-05-06 15:10 52.61464 5.00958 12157 ft 350 kts 50°
2026-05-06 15:10 52.62474 5.03043 12578 ft 353 kts 50°
2026-05-06 15:10 52.64016 5.06224 13213 ft 358 kts 50°
2026-05-06 15:11 52.66086 5.10515 13973 ft 365 kts 50°
2026-05-06 15:11 52.67665 5.13810 14542 ft 369 kts 50°
2026-05-06 15:11 52.69260 5.17158 15079 ft 373 kts 50°
2026-05-06 15:11 52.70387 5.19365 15471 ft 373 kts 43°
2026-05-06 15:12 52.73235 5.22492 16210 ft 374 kts 22°
2026-05-06 15:12 52.75724 5.23568 16763 ft 371 kts
2026-05-06 15:12 52.77469 5.23628 17138 ft 373 kts 359°
2026-05-06 15:12 52.80069 5.24129 17697 ft 379 kts
2026-05-06 15:13 52.82621 5.25098 18266 ft 384 kts 13°
2026-05-06 15:13 52.85196 5.26359 18775 ft 387 kts 15°
2026-05-06 15:13 52.87776 5.27747 19271 ft 392 kts 16°
2026-05-06 15:13 52.90374 5.29153 19800 ft 395 kts 15°
2026-05-06 15:14 52.93006 5.30532 20260 ft 400 kts 14°
2026-05-06 15:14 52.95683 5.31873 20756 ft 403 kts 14°
2026-05-06 15:14 52.98390 5.33180 21254 ft 406 kts 13°
2026-05-06 15:14 53.01120 5.34471 21723 ft 410 kts 13°
2026-05-06 15:15 53.03871 5.35762 22233 ft 413 kts 13°
2026-05-06 15:15 53.06652 5.37070 22675 ft 416 kts 13°
2026-05-06 15:15 53.09450 5.38397 23157 ft 419 kts 14°
2026-05-06 15:15 53.12260 5.39742 23592 ft 423 kts 13°
2026-05-06 15:16 53.15101 5.41109 23958 ft 426 kts 14°
2026-05-06 15:16 53.17964 5.42489 24309 ft 430 kts 14°
2026-05-06 15:16 53.20845 5.43877 24679 ft 433 kts 14°
2026-05-06 15:16 53.23754 5.45282 25059 ft 435 kts 14°
2026-05-06 15:17 53.26631 5.46676 25408 ft 438 kts 14°
2026-05-06 15:17 53.29562 5.48098 25769 ft 440 kts 14°
2026-05-06 15:17 53.32506 5.49528 26117 ft 442 kts 14°
2026-05-06 15:17 53.35474 5.50973 26465 ft 444 kts 14°
2026-05-06 15:18 53.38451 5.52424 26812 ft 447 kts 14°
2026-05-06 15:18 53.41445 5.53881 27148 ft 449 kts 14°
2026-05-06 15:18 53.44452 5.55339 27519 ft 451 kts 14°
2026-05-06 15:18 53.47476 5.56805 27831 ft 454 kts 14°
2026-05-06 15:19 53.50516 5.58287 28162 ft 456 kts 14°
2026-05-06 15:19 53.53567 5.59781 28492 ft 458 kts 14°
2026-05-06 15:19 53.56632 5.61285 28820 ft 460 kts 14°
2026-05-06 15:19 53.59715 5.62799 29128 ft 462 kts 14°
2026-05-06 15:20 53.62802 5.64320 29589 ft 462 kts 15°
2026-05-06 15:20 53.65882 5.65847 30025 ft 461 kts 15°
2026-05-06 15:20 53.68960 5.67382 30417 ft 461 kts 15°
2026-05-06 15:20 53.72030 5.68924 30811 ft 460 kts 15°
2026-05-06 15:21 53.75093 5.70466 31215 ft 459 kts 15°
2026-05-06 15:21 53.78150 5.72002 31626 ft 458 kts 15°
2026-05-06 15:21 53.81199 5.73533 32036 ft 457 kts 15°
2026-05-06 15:21 53.84243 5.75059 32452 ft 456 kts 15°
2026-05-06 15:22 53.87282 5.76581 32860 ft 455 kts 14°
2026-05-06 15:22 53.90321 5.78103 33243 ft 455 kts 15°
2026-05-06 15:22 53.93315 5.79609 33634 ft 454 kts 15°
2026-05-06 15:22 53.96341 5.81140 34027 ft 454 kts 15°
2026-05-06 15:23 53.99364 5.82681 34320 ft 454 kts 15°
2026-05-06 15:23 54.02381 5.84225 34607 ft 453 kts 15°
2026-05-06 15:23 54.05409 5.85770 34861 ft 454 kts 15°
2026-05-06 15:24 54.11520 5.88874 34986 ft 463 kts 14°
2026-05-06 15:24 54.17733 5.92033 34975 ft 468 kts 15°
2026-05-06 15:25 54.23989 5.95237 34972 ft 469 kts 15°
2026-05-06 15:25 54.30235 5.98451 34972 ft 469 kts 15°
2026-05-06 15:26 54.36483 6.01667 34983 ft 469 kts 14°
2026-05-06 15:26 54.42736 6.04900 34983 ft 470 kts 15°
2026-05-06 15:27 54.48956 6.08125 34990 ft 470 kts 15°
2026-05-06 15:27 54.55213 6.11385 34991 ft 470 kts 15°
2026-05-06 15:28 54.61483 6.14654 35013 ft 470 kts 14°
2026-05-06 15:28 54.67742 6.17936 35005 ft 471 kts 14°
2026-05-06 15:29 54.74018 6.21237 35003 ft 471 kts 14°
2026-05-06 15:29 54.80289 6.24545 35002 ft 471 kts 14°
2026-05-06 15:30 54.86559 6.27858 35018 ft 471 kts 14°
2026-05-06 15:30 54.92829 6.31175 35014 ft 471 kts 14°
2026-05-06 15:31 54.99096 6.34512 35005 ft 471 kts 14°
2026-05-06 15:31 55.05326 6.38131 35007 ft 472 kts 17°
2026-05-06 15:32 55.14572 6.44127 35017 ft 473 kts 18°
2026-05-06 15:32 55.20745 6.48107 35014 ft 473 kts 17°
2026-05-06 15:33 55.26930 6.52025 35008 ft 473 kts 17°
2026-05-06 15:33 55.33085 6.55924 35013 ft 473 kts 17°
2026-05-06 15:34 55.39277 6.59874 35025 ft 474 kts 17°
2026-05-06 15:34 55.45481 6.63857 35017 ft 475 kts 17°
2026-05-06 15:35 55.51686 6.67852 35015 ft 475 kts 17°
2026-05-06 15:35 55.57897 6.71861 34999 ft 475 kts 17°
2026-05-06 15:36 55.64111 6.75877 35015 ft 476 kts 17°
2026-05-06 15:36 55.70330 6.79920 35012 ft 476 kts 17°
2026-05-06 15:37 55.76544 6.83991 35009 ft 476 kts 17°
2026-05-06 15:37 55.82713 6.88037 35011 ft 476 kts 17°
2026-05-06 15:38 55.88918 6.92106 35014 ft 476 kts 17°
2026-05-06 15:38 55.95135 6.96201 35014 ft 476 kts 17°
2026-05-06 15:39 56.01352 7.00307 35012 ft 476 kts 17°
2026-05-06 15:39 56.07569 7.04433 35012 ft 476 kts 17°
2026-05-06 15:40 56.13783 7.08569 35025 ft 477 kts 17°
2026-05-06 15:40 56.20003 7.12732 35002 ft 477 kts 17°
2026-05-06 15:41 56.26219 7.16902 34997 ft 477 kts 17°
2026-05-06 15:41 56.32444 7.21089 34998 ft 478 kts 17°
2026-05-06 15:42 56.38641 7.25265 35013 ft 478 kts 17°
2026-05-06 15:42 56.44885 7.29491 35004 ft 479 kts 17°
2026-05-06 15:43 56.51138 7.33746 35006 ft 480 kts 17°
2026-05-06 15:43 56.57363 7.37976 35007 ft 480 kts 17°
2026-05-06 15:44 56.63618 7.42257 35039 ft 481 kts 17°
2026-05-06 15:44 56.69881 7.46578 35014 ft 482 kts 17°
2026-05-06 15:45 56.76158 7.50917 35010 ft 482 kts 17°
2026-05-06 15:45 56.82431 7.55259 35010 ft 483 kts 17°
2026-05-06 15:46 56.88723 7.59617 35034 ft 483 kts 17°
2026-05-06 15:46 56.95009 7.63991 35027 ft 483 kts 17°
2026-05-06 15:47 57.01294 7.68391 35007 ft 484 kts 17°
2026-05-06 15:47 57.07583 7.72813 35001 ft 484 kts 17°
2026-05-06 15:48 57.13839 7.77233 35001 ft 485 kts 17°
2026-05-06 15:48 57.20141 7.81683 35010 ft 485 kts 17°
2026-05-06 15:49 57.26451 7.86150 35002 ft 485 kts 17°
2026-05-06 15:49 57.32751 7.90645 34998 ft 485 kts 17°
2026-05-06 15:50 57.39057 7.95152 34994 ft 485 kts 17°
2026-05-06 15:50 57.45359 7.99677 35017 ft 486 kts 17°
2026-05-06 15:51 57.51668 8.04226 34999 ft 486 kts 17°
2026-05-06 15:51 57.57931 8.08758 34993 ft 486 kts 17°
2026-05-06 15:52 57.64241 8.13335 34990 ft 487 kts 17°
2026-05-06 15:52 57.70553 8.17933 35008 ft 487 kts 17°
2026-05-06 15:53 57.76875 8.22557 34998 ft 487 kts 17°
2026-05-06 15:53 57.83191 8.27201 34991 ft 488 kts 17°
2026-05-06 15:54 57.89506 8.31863 34985 ft 488 kts 17°
2026-05-06 15:54 57.95831 8.36545 35007 ft 488 kts 17°
2026-05-06 15:55 58.02157 8.41240 34992 ft 489 kts 17°
2026-05-06 15:55 58.08494 8.45950 34991 ft 489 kts 17°
2026-05-06 15:56 58.14782 8.50641 34986 ft 490 kts 17°
2026-05-06 15:56 58.21118 8.55398 35014 ft 490 kts 17°
2026-05-06 15:57 58.27460 8.60188 35004 ft 491 kts 17°
2026-05-06 15:57 58.33804 8.64995 34997 ft 491 kts 17°
2026-05-06 15:58 58.40154 8.69821 34986 ft 491 kts 17°
2026-05-06 15:58 58.46489 8.74652 34979 ft 491 kts 17°
2026-05-06 15:59 58.52851 8.79525 34963 ft 492 kts 17°
2026-05-06 15:59 58.59151 8.84375 34968 ft 492 kts 17°
2026-05-06 16:00 58.65523 8.89293 34974 ft 493 kts 17°
2026-05-06 16:00 58.71879 8.94203 34989 ft 493 kts 17°
2026-05-06 16:01 58.78244 8.99145 34993 ft 493 kts 17°
2026-05-06 16:01 58.84519 9.04531 34981 ft 498 kts 26°
2026-05-06 16:02 58.90135 9.12483 34969 ft 503 kts 36°
2026-05-06 16:02 58.95610 9.20938 34964 ft 503 kts 36°
2026-05-06 16:03 59.00158 9.27960 35002 ft 503 kts 35°
2026-05-06 16:03 59.05631 9.36433 34984 ft 503 kts 36°
2026-05-06 16:04 59.11086 9.44925 34982 ft 501 kts 36°
2026-05-06 16:04 59.16506 9.53411 34976 ft 499 kts 36°
2026-05-06 16:05 59.22083 9.61250 34972 ft 495 kts 30°
2026-05-06 16:05 59.27839 9.68630 34949 ft 494 kts 29°
2026-05-06 16:06 59.33736 9.75339 34768 ft 482 kts 16°
2026-05-06 16:06 59.36895 9.77325 34364 ft 472 kts
2026-05-06 16:06 59.40050 9.79054 33925 ft 470 kts
2026-05-06 16:07 59.43189 9.80779 33402 ft 467 kts
2026-05-06 16:07 59.46314 9.82506 32905 ft 464 kts
2026-05-06 16:07 59.49401 9.84226 32436 ft 461 kts
2026-05-06 16:07 59.52479 9.85949 32003 ft 458 kts
2026-05-06 16:08 59.55489 9.87639 31584 ft 455 kts
2026-05-06 16:08 59.58531 9.89354 31170 ft 452 kts
2026-05-06 16:08 59.61548 9.91059 30746 ft 449 kts
2026-05-06 16:08 59.64535 9.92746 30322 ft 446 kts
2026-05-06 16:09 59.67508 9.94419 29723 ft 441 kts
2026-05-06 16:09 59.70445 9.96061 28945 ft 436 kts
2026-05-06 16:09 59.73348 9.97681 28209 ft 430 kts
2026-05-06 16:09 59.76203 9.99279 27520 ft 424 kts
2026-05-06 16:10 59.79023 10.00862 26874 ft 418 kts
2026-05-06 16:10 59.81814 10.02431 26218 ft 414 kts
2026-05-06 16:10 59.84570 10.03981 25524 ft 410 kts
2026-05-06 16:10 59.87201 10.05464 24885 ft 405 kts
2026-05-06 16:11 59.89893 10.06985 24254 ft 399 kts
2026-05-06 16:11 59.92539 10.08482 23633 ft 394 kts
2026-05-06 16:11 59.95149 10.09962 22901 ft 388 kts
2026-05-06 16:11 59.97731 10.11438 22191 ft 382 kts
2026-05-06 16:12 60.00274 10.12896 21488 ft 376 kts
2026-05-06 16:12 60.02771 10.14334 20783 ft 371 kts
2026-05-06 16:12 60.05230 10.15758 20137 ft 364 kts
2026-05-06 16:12 60.07613 10.17146 19549 ft 359 kts
2026-05-06 16:13 60.10000 10.18539 18882 ft 355 kts
2026-05-06 16:13 60.12358 10.19909 18259 ft 350 kts
2026-05-06 16:13 60.14683 10.21255 17551 ft 346 kts
2026-05-06 16:13 60.16977 10.22581 16864 ft 341 kts
2026-05-06 16:14 60.19241 10.23890 16189 ft 337 kts
2026-05-06 16:14 60.21482 10.25185 15513 ft 332 kts
2026-05-06 16:14 60.23692 10.26464 14883 ft 328 kts
2026-05-06 16:14 60.25787 10.27682 14287 ft 325 kts
2026-05-06 16:15 60.27942 10.28938 13685 ft 321 kts 10°
2026-05-06 16:15 60.30078 10.30185 13018 ft 317 kts 11°
2026-05-06 16:15 60.32185 10.31420 12379 ft 312 kts 12°
2026-05-06 16:15 60.34094 10.32935 11779 ft 311 kts 20°
2026-05-06 16:16 60.36050 10.34699 11189 ft 306 kts 21°
2026-05-06 16:16 60.37976 10.36443 10596 ft 300 kts 22°
2026-05-06 16:16 60.39866 10.38156 10013 ft 296 kts 22°
2026-05-06 16:16 60.41734 10.39855 9402 ft 292 kts 23°
2026-05-06 16:17 60.43570 10.41526 8940 ft 288 kts 22°
2026-05-06 16:17 60.45365 10.43158 8897 ft 275 kts 22°
2026-05-06 16:17 60.47094 10.44683 8908 ft 275 kts 19°
2026-05-06 16:17 60.48986 10.45444 8905 ft 280 kts
2026-05-06 16:18 60.50939 10.45653 8906 ft 281 kts
2026-05-06 16:18 60.52891 10.45759 8905 ft 280 kts
2026-05-06 16:18 60.54761 10.46434 8899 ft 268 kts 15°
2026-05-06 16:18 60.56502 10.47495 8908 ft 255 kts 16°
2026-05-06 16:19 60.58120 10.48917 8911 ft 254 kts 27°
2026-05-06 16:19 60.59649 10.50705 8915 ft 253 kts 28°
2026-05-06 16:19 60.61176 10.52483 8905 ft 253 kts 28°
2026-05-06 16:19 60.62706 10.54258 8916 ft 253 kts 28°
2026-05-06 16:20 60.64234 10.56034 8914 ft 252 kts 28°
2026-05-06 16:20 60.65740 10.57790 8913 ft 252 kts 29°
2026-05-06 16:20 60.67140 10.59929 8909 ft 253 kts 45°
2026-05-06 16:20 60.68185 10.62838 8916 ft 256 kts 57°
2026-05-06 16:21 60.69135 10.65905 8907 ft 255 kts 57°
2026-05-06 16:21 60.70024 10.69035 8829 ft 255 kts 68°
2026-05-06 16:21 60.70337 10.72549 8551 ft 252 kts 95°
2026-05-06 16:21 60.69871 10.75951 8417 ft 250 kts 121°
2026-05-06 16:22 60.68752 10.78607 8290 ft 247 kts 145°
2026-05-06 16:22 60.67355 10.80653 8152 ft 247 kts 147°
2026-05-06 16:22 60.65953 10.82685 8019 ft 247 kts 146°
2026-05-06 16:22 60.64551 10.84717 7885 ft 247 kts 147°
2026-05-06 16:23 60.63159 10.86740 7750 ft 243 kts 146°
2026-05-06 16:23 60.61808 10.88706 7617 ft 236 kts 146°
2026-05-06 16:23 60.60479 10.90643 7484 ft 235 kts 147°
2026-05-06 16:23 60.59152 10.92578 7345 ft 234 kts 147°
2026-05-06 16:24 60.57832 10.94502 7220 ft 233 kts 146°
2026-05-06 16:24 60.56509 10.96426 7087 ft 234 kts 147°
2026-05-06 16:24 60.55184 10.98346 6957 ft 233 kts 146°
2026-05-06 16:24 60.53870 11.00247 6828 ft 232 kts 146°
2026-05-06 16:25 60.52555 11.02143 6689 ft 232 kts 147°
2026-05-06 16:25 60.51237 11.04045 6448 ft 232 kts 146°
2026-05-06 16:25 60.49932 11.05932 6166 ft 230 kts 146°
2026-05-06 16:25 60.48646 11.07790 5874 ft 230 kts 146°
2026-05-06 16:26 60.47344 11.09668 5586 ft 229 kts 146°
2026-05-06 16:26 60.46058 11.11585 5285 ft 230 kts 144°
2026-05-06 16:26 60.44788 11.13569 4990 ft 231 kts 144°
2026-05-06 16:26 60.43521 11.15570 4672 ft 231 kts 143°
2026-05-06 16:27 60.42283 11.17520 4599 ft 220 kts 144°
2026-05-06 16:27 60.40981 11.18958 4514 ft 208 kts 166°
2026-05-06 16:27 60.39580 11.19368 4391 ft 202 kts 186°
2026-05-06 16:27 60.38227 11.18832 4161 ft 198 kts 198°
2026-05-06 16:28 60.36904 11.18057 3897 ft 198 kts 198°
2026-05-06 16:28 60.35584 11.17284 3628 ft 198 kts 198°
2026-05-06 16:28 60.34264 11.16514 3357 ft 197 kts 198°
2026-05-06 16:28 60.32951 11.15749 3086 ft 196 kts 198°
2026-05-06 16:29 60.31638 11.14986 2833 ft 195 kts 198°
2026-05-06 16:29 60.30354 11.14240 2556 ft 189 kts 198°
2026-05-06 16:29 60.29129 11.13529 2279 ft 176 kts 198°
2026-05-06 16:29 60.28026 11.12891 2066 ft 157 kts 198°
2026-05-06 16:30 60.27009 11.12300 1844 ft 147 kts 199°
2026-05-06 16:30 60.26366 11.11924 1695 ft 144 kts 200°
2026-05-06 16:30 60.25096 11.11179 1420 ft 141 kts 199°
2026-05-06 16:30 60.24159 11.10634 1260 ft 140 kts 199°
2026-05-06 16:31 60.23237 11.10103 1080 ft 139 kts 199°
2026-05-06 16:31 60.22299 11.09560 875 ft 139 kts 198°
2026-05-06 16:31 60.21365 11.09022 685 ft 140 kts 198°
2026-05-06 16:31 60.20547 11.08555 678 ft 93 kts 195°
2026-05-06 16:32 60.20182 11.08345 676 ft 34 kts 196°
2026-05-06 16:32 60.20023 11.08292 676 ft 18 kts 177°
2026-05-06 16:32 60.19912 11.08371 675 ft 16 kts 132°
2026-05-06 16:32 60.19892 11.08450 673 ft 2 kts 107°
2026-05-06 16:33 60.19890 11.08467 676 ft 1 kts 107°
2026-05-06 16:33 60.19888 11.08474 676 ft 4 kts 107°
2026-05-06 16:33 60.19868 11.08618 678 ft 13 kts 106°
2026-05-06 16:34 60.19808 11.09039 680 ft 18 kts 105°
2026-05-06 16:34 60.19774 11.09274 683 ft 18 kts 106°
2026-05-06 16:34 60.19744 11.09482 683 ft 13 kts 106°
2026-05-06 16:34 60.19720 11.09651 681 ft 13 kts 106°
2026-05-06 16:35 60.19666 11.09753 685 ft 8 kts 153°
2026-05-06 16:35 60.19650 11.09827 685 ft 3 kts 105°
2026-05-06 16:35 60.19643 11.09876 685 ft 4 kts 106°
2026-05-06 16:35 60.19635 11.09929 685 ft 3 kts 106°
2026-05-06 16:36 60.19632 11.09948 682 ft 2 kts 106°
2026-05-06 16:36 60.19630 11.09960 683 ft 0 kts 106°